ECV55J LGIR-LGZA

Flight info

Callsign ECV55J
Flight time 1h 8m
Altitude 24000
Route BAVES1D BAVES J65 TRL M601 KFN KFN2S
Aircraft A320/M-SDE3FGHIRWY/LB1

Departure

Time 2026-05-05 11:50
Airport Heraklion International Nikos Kazantzakis Airport (LGIR)

Arrival

Time 2026-05-05 12:58
Airport Zakynthos International Airport Dionysios Solomos (LGZA)
Time Latitude Longitude Altitude Speed Heading
2026-05-05 11:28 35.33768 25.17417 85 ft 0 kts 274°
2026-05-05 11:44 35.33768 25.17405 89 ft 5 kts 274°
2026-05-05 11:44 35.33801 25.17373 85 ft 8 kts 351°
2026-05-05 11:45 35.33866 25.17377 84 ft 10 kts
2026-05-05 11:45 35.33918 25.17425 86 ft 10 kts 80°
2026-05-05 11:45 35.33913 25.17506 90 ft 9 kts 96°
2026-05-05 11:45 35.33906 25.17586 89 ft 11 kts 95°
2026-05-05 11:46 35.33899 25.17695 92 ft 14 kts 95°
2026-05-05 11:46 35.33890 25.17820 97 ft 15 kts 95°
2026-05-05 11:46 35.33879 25.17958 98 ft 17 kts 94°
2026-05-05 11:46 35.33870 25.18111 102 ft 19 kts 95°
2026-05-05 11:47 35.33859 25.18276 105 ft 20 kts 95°
2026-05-05 11:47 35.33846 25.18461 107 ft 23 kts 94°
2026-05-05 11:47 35.33832 25.18662 112 ft 24 kts 95°
2026-05-05 11:47 35.33819 25.18858 116 ft 20 kts 94°
2026-05-05 11:48 35.33900 25.18999 115 ft 12 kts 321°
2026-05-05 11:48 35.33911 25.18952 116 ft 2 kts 274°
2026-05-05 11:48 35.33914 25.18917 114 ft 6 kts 273°
2026-05-05 11:49 35.33914 25.18885 115 ft 3 kts 276°
2026-05-05 11:49 35.33928 25.18706 111 ft 54 kts 275°
2026-05-05 11:49 35.33977 25.17986 100 ft 113 kts 274°
2026-05-05 11:49 35.34050 25.16835 147 ft 151 kts 277°
2026-05-05 11:50 35.34137 25.15565 804 ft 147 kts 281°
2026-05-05 11:50 35.34585 25.14452 1416 ft 152 kts 317°
2026-05-05 11:50 35.35539 25.13885 1932 ft 160 kts 349°
2026-05-05 11:50 35.36721 25.14098 2150 ft 190 kts 21°
2026-05-05 11:51 35.37971 25.14865 2441 ft 209 kts 22°
2026-05-05 11:51 35.39376 25.15288 2998 ft 209 kts 354°
2026-05-05 11:51 35.40765 25.14867 3804 ft 206 kts 340°
2026-05-05 11:51 35.42129 25.14273 4545 ft 208 kts 341°
2026-05-05 11:52 35.43510 25.13698 5254 ft 212 kts 350°
2026-05-05 11:52 35.44962 25.13844 5953 ft 213 kts 22°
2026-05-05 11:52 35.46145 25.14905 6733 ft 214 kts 50°
2026-05-05 11:52 35.46771 25.16574 7434 ft 223 kts 77°
2026-05-05 11:53 35.46605 25.18509 8045 ft 239 kts 110°
2026-05-05 11:53 35.45543 25.20111 8642 ft 252 kts 147°
2026-05-05 11:53 35.43858 25.20704 9284 ft 258 kts 185°
2026-05-05 11:53 35.42083 25.20345 9974 ft 260 kts 194°
2026-05-05 11:54 35.40311 25.19869 10630 ft 262 kts 195°
2026-05-05 11:54 35.38523 25.19371 11249 ft 265 kts 195°
2026-05-05 11:54 35.36715 25.18870 11885 ft 269 kts 195°
2026-05-05 11:54 35.34877 25.18365 12527 ft 272 kts 195°
2026-05-05 11:55 35.33033 25.17785 13177 ft 274 kts 206°
2026-05-05 11:55 35.31437 25.16578 13802 ft 269 kts 230°
2026-05-05 11:55 35.30651 25.15415 14175 ft 265 kts 245°
2026-05-05 11:55 35.30008 25.13353 14751 ft 257 kts 267°
2026-05-05 11:56 35.30037 25.11207 15340 ft 251 kts 288°
2026-05-05 11:56 35.30691 25.09261 15920 ft 247 kts 307°
2026-05-05 11:56 35.31865 25.07752 16492 ft 248 kts 325°
2026-05-05 11:56 35.33351 25.06627 17010 ft 251 kts 329°
2026-05-05 11:57 35.34787 25.05406 17647 ft 251 kts 316°
2026-05-05 11:57 35.35869 25.03720 18144 ft 259 kts 300°
2026-05-05 11:57 35.36511 25.01575 18276 ft 279 kts 287°
2026-05-05 11:57 35.36995 24.99188 18401 ft 297 kts 287°
2026-05-05 11:58 35.37513 24.96662 18525 ft 314 kts 287°
2026-05-05 11:58 35.38064 24.93998 18645 ft 331 kts 287°
2026-05-05 11:58 35.38646 24.91195 18760 ft 348 kts 287°
2026-05-05 11:58 35.39247 24.88300 19020 ft 358 kts 287°
2026-05-05 11:59 35.39864 24.85327 19505 ft 362 kts 287°
2026-05-05 11:59 35.40490 24.82319 20068 ft 365 kts 287°
2026-05-05 11:59 35.41117 24.79296 20654 ft 367 kts 287°
2026-05-05 11:59 35.41743 24.76256 21222 ft 369 kts 287°
2026-05-05 12:00 35.42372 24.73198 21775 ft 371 kts 288°
2026-05-05 12:00 35.42982 24.70116 22317 ft 373 kts 287°
2026-05-05 12:00 35.43556 24.67003 22829 ft 375 kts 286°
2026-05-05 12:00 35.44113 24.63858 23335 ft 378 kts 286°
2026-05-05 12:01 35.44664 24.60699 23816 ft 380 kts 286°
2026-05-05 12:01 35.45218 24.57531 24069 ft 381 kts 286°
2026-05-05 12:01 35.45777 24.54360 24136 ft 376 kts 286°
2026-05-05 12:01 35.46329 24.51246 24135 ft 373 kts 286°
2026-05-05 12:02 35.46878 24.48141 24135 ft 372 kts 287°
2026-05-05 12:02 35.47429 24.45043 24135 ft 372 kts 287°
2026-05-05 12:02 35.47983 24.41943 24140 ft 372 kts 287°
2026-05-05 12:02 35.48535 24.38848 24132 ft 372 kts 287°
2026-05-05 12:03 35.49086 24.35752 24111 ft 372 kts 286°
2026-05-05 12:03 35.49638 24.32652 24118 ft 372 kts 286°
2026-05-05 12:03 35.50187 24.29551 24113 ft 372 kts 286°
2026-05-05 12:03 35.50726 24.26481 24111 ft 372 kts 286°
2026-05-05 12:04 35.51277 24.23339 24112 ft 372 kts 286°
2026-05-05 12:04 35.52004 24.20318 24111 ft 367 kts 296°
2026-05-05 12:04 35.53201 24.17581 24111 ft 363 kts 307°
2026-05-05 12:04 35.54800 24.15251 24107 ft 361 kts 317°
2026-05-05 12:05 35.56743 24.13292 24108 ft 360 kts 322°
2026-05-05 12:05 35.58737 24.11410 24106 ft 361 kts 322°
2026-05-05 12:05 35.60730 24.09526 24111 ft 361 kts 322°
2026-05-05 12:05 35.62722 24.07639 24108 ft 361 kts 322°
2026-05-05 12:06 35.64711 24.05752 24101 ft 361 kts 322°
2026-05-05 12:06 35.66703 24.03858 24109 ft 362 kts 322°
2026-05-05 12:06 35.68692 24.01970 24116 ft 362 kts 322°
2026-05-05 12:06 35.70681 24.00080 24131 ft 362 kts 322°
2026-05-05 12:07 35.72673 23.98183 24135 ft 362 kts 322°
2026-05-05 12:07 35.74665 23.96282 24138 ft 362 kts 322°
2026-05-05 12:07 35.76653 23.94387 24141 ft 362 kts 322°
2026-05-05 12:07 35.78642 23.92494 24144 ft 362 kts 322°
2026-05-05 12:08 35.80638 23.90591 24144 ft 362 kts 322°
2026-05-05 12:08 35.82627 23.88695 24142 ft 362 kts 322°
2026-05-05 12:08 35.84617 23.86797 24143 ft 362 kts 322°
2026-05-05 12:08 35.86579 23.84925 24144 ft 362 kts 322°
2026-05-05 12:09 35.88593 23.83000 24147 ft 362 kts 322°
2026-05-05 12:09 35.90588 23.81088 24146 ft 362 kts 322°
2026-05-05 12:09 35.92550 23.79207 24147 ft 362 kts 322°
2026-05-05 12:09 35.94536 23.77302 24142 ft 362 kts 322°
2026-05-05 12:10 35.96517 23.75402 24143 ft 362 kts 322°
2026-05-05 12:10 35.98505 23.73495 24133 ft 361 kts 322°
2026-05-05 12:10 36.00489 23.71591 24134 ft 361 kts 322°
2026-05-05 12:10 36.02474 23.69687 24139 ft 361 kts 322°
2026-05-05 12:11 36.04453 23.67787 24140 ft 361 kts 322°
2026-05-05 12:11 36.06435 23.65879 24134 ft 361 kts 322°
2026-05-05 12:11 36.08413 23.63971 24136 ft 361 kts 322°
2026-05-05 12:11 36.10394 23.62062 24135 ft 361 kts 322°
2026-05-05 12:12 36.12371 23.60156 24142 ft 361 kts 322°
2026-05-05 12:12 36.14350 23.58251 24141 ft 360 kts 322°
2026-05-05 12:12 36.16326 23.56347 24141 ft 360 kts 322°
2026-05-05 12:12 36.18302 23.54437 24140 ft 360 kts 322°
2026-05-05 12:13 36.20277 23.52523 24136 ft 360 kts 322°
2026-05-05 12:13 36.22250 23.50612 24137 ft 360 kts 322°
2026-05-05 12:13 36.24225 23.48700 24137 ft 360 kts 322°
2026-05-05 12:13 36.26200 23.46790 24137 ft 360 kts 322°
2026-05-05 12:14 36.28180 23.44876 24137 ft 360 kts 322°
2026-05-05 12:14 36.30157 23.42959 24137 ft 360 kts 322°
2026-05-05 12:14 36.32128 23.41044 24123 ft 360 kts 322°
2026-05-05 12:14 36.34097 23.39131 24126 ft 360 kts 322°
2026-05-05 12:15 36.36067 23.37221 24123 ft 360 kts 322°
2026-05-05 12:15 36.38040 23.35305 24128 ft 359 kts 322°
2026-05-05 12:15 36.40014 23.33386 24127 ft 359 kts 322°
2026-05-05 12:15 36.41976 23.31475 24128 ft 359 kts 322°
2026-05-05 12:16 36.43945 23.29557 24133 ft 359 kts 322°
2026-05-05 12:16 36.45908 23.27645 24133 ft 359 kts 322°
2026-05-05 12:16 36.47876 23.25727 24133 ft 359 kts 322°
2026-05-05 12:16 36.49843 23.23809 24132 ft 359 kts 322°
2026-05-05 12:17 36.51804 23.21893 24129 ft 359 kts 322°
2026-05-05 12:17 36.53767 23.19974 24129 ft 359 kts 322°
2026-05-05 12:17 36.55728 23.18054 24128 ft 359 kts 322°
2026-05-05 12:17 36.57687 23.16135 24132 ft 359 kts 322°
2026-05-05 12:18 36.59651 23.14211 24129 ft 359 kts 322°
2026-05-05 12:18 36.61614 23.12286 24126 ft 359 kts 322°
2026-05-05 12:18 36.63576 23.10362 24106 ft 359 kts 322°
2026-05-05 12:18 36.65539 23.08438 24111 ft 359 kts 322°
2026-05-05 12:19 36.67498 23.06514 24121 ft 358 kts 322°
2026-05-05 12:19 36.69463 23.04583 24123 ft 358 kts 322°
2026-05-05 12:19 36.71415 23.02664 24125 ft 358 kts 322°
2026-05-05 12:19 36.73375 23.00735 24118 ft 358 kts 322°
2026-05-05 12:20 36.75330 22.98813 24121 ft 358 kts 322°
2026-05-05 12:20 36.77284 22.96889 24121 ft 358 kts 322°
2026-05-05 12:20 36.79212 22.94988 24120 ft 358 kts 322°
2026-05-05 12:20 36.81163 22.93062 24120 ft 358 kts 322°
2026-05-05 12:21 36.83113 22.91136 24117 ft 358 kts 322°
2026-05-05 12:21 36.85063 22.89208 24125 ft 358 kts 322°
2026-05-05 12:21 36.87018 22.87276 24122 ft 358 kts 322°
2026-05-05 12:21 36.88972 22.85347 24120 ft 358 kts 322°
2026-05-05 12:22 36.90932 22.83412 24120 ft 358 kts 322°
2026-05-05 12:22 36.92887 22.81477 24119 ft 358 kts 322°
2026-05-05 12:22 36.94840 22.79545 24118 ft 358 kts 322°
2026-05-05 12:22 36.96803 22.77602 24103 ft 358 kts 322°
2026-05-05 12:23 36.98759 22.75661 24106 ft 358 kts 322°
2026-05-05 12:23 37.00711 22.73721 24108 ft 358 kts 322°
2026-05-05 12:23 37.02656 22.71786 24111 ft 358 kts 322°
2026-05-05 12:23 37.04608 22.69842 24112 ft 358 kts 322°
2026-05-05 12:24 37.06552 22.67905 24109 ft 358 kts 322°
2026-05-05 12:24 37.08500 22.65968 24112 ft 358 kts 322°
2026-05-05 12:24 37.10451 22.64030 24112 ft 358 kts 322°
2026-05-05 12:24 37.12402 22.62089 24124 ft 357 kts 322°
2026-05-05 12:25 37.14324 22.60174 24120 ft 358 kts 322°
2026-05-05 12:25 37.16274 22.58226 24124 ft 358 kts 322°
2026-05-05 12:25 37.18220 22.56277 24121 ft 358 kts 322°
2026-05-05 12:25 37.20158 22.54332 24121 ft 357 kts 322°
2026-05-05 12:26 37.22102 22.52380 24119 ft 358 kts 322°
2026-05-05 12:26 37.24045 22.50430 24118 ft 358 kts 322°
2026-05-05 12:26 37.25991 22.48480 24117 ft 358 kts 322°
2026-05-05 12:26 37.27937 22.46530 24116 ft 357 kts 322°
2026-05-05 12:27 37.29881 22.44584 24101 ft 358 kts 322°
2026-05-05 12:27 37.31824 22.42639 24102 ft 358 kts 322°
2026-05-05 12:27 37.33770 22.40685 24103 ft 358 kts 322°
2026-05-05 12:27 37.35711 22.38734 24105 ft 358 kts 322°
2026-05-05 12:28 37.37657 22.36774 24106 ft 358 kts 322°
2026-05-05 12:28 37.39519 22.34707 24107 ft 359 kts 314°
2026-05-05 12:28 37.41045 22.32212 24127 ft 362 kts 304°
2026-05-05 12:28 37.42223 22.29399 24125 ft 364 kts 300°
2026-05-05 12:29 37.43351 22.26553 24116 ft 362 kts 300°
2026-05-05 12:29 37.44474 22.23723 24104 ft 361 kts 300°
2026-05-05 12:29 37.45592 22.20902 24096 ft 361 kts 300°
2026-05-05 12:29 37.46715 22.18066 24104 ft 362 kts 300°
2026-05-05 12:30 37.47837 22.15234 24103 ft 362 kts 300°
2026-05-05 12:30 37.48964 22.12390 24082 ft 362 kts 300°
2026-05-05 12:30 37.50089 22.09548 24087 ft 363 kts 300°
2026-05-05 12:30 37.51210 22.06709 24091 ft 363 kts 300°
2026-05-05 12:31 37.52335 22.03854 24102 ft 363 kts 300°
2026-05-05 12:31 37.53455 22.01007 24105 ft 363 kts 300°
2026-05-05 12:31 37.54560 21.98196 24108 ft 363 kts 300°
2026-05-05 12:31 37.55682 21.95343 24108 ft 363 kts 300°
2026-05-05 12:32 37.56801 21.92494 24120 ft 363 kts 300°
2026-05-05 12:32 37.57923 21.89635 24120 ft 363 kts 300°
2026-05-05 12:32 37.59044 21.86776 24121 ft 364 kts 300°
2026-05-05 12:32 37.60163 21.83922 24122 ft 364 kts 300°
2026-05-05 12:33 37.61283 21.81056 24122 ft 364 kts 300°
2026-05-05 12:33 37.62398 21.78202 24119 ft 363 kts 299°
2026-05-05 12:33 37.63517 21.75340 24121 ft 364 kts 299°
2026-05-05 12:33 37.64634 21.72478 24125 ft 364 kts 299°
2026-05-05 12:34 37.65750 21.69615 24123 ft 363 kts 300°
2026-05-05 12:34 37.66864 21.66756 24124 ft 363 kts 299°
2026-05-05 12:34 37.67977 21.63893 24124 ft 363 kts 299°
2026-05-05 12:34 37.69088 21.61034 24125 ft 363 kts 299°
2026-05-05 12:35 37.70198 21.58173 24122 ft 363 kts 299°
2026-05-05 12:35 37.71310 21.55305 24122 ft 363 kts 299°
2026-05-05 12:35 37.72421 21.52444 24124 ft 363 kts 299°
2026-05-05 12:35 37.73532 21.49581 24124 ft 363 kts 299°
2026-05-05 12:36 37.74640 21.46715 24123 ft 363 kts 299°
2026-05-05 12:36 37.75746 21.43847 24122 ft 363 kts 299°
2026-05-05 12:36 37.76852 21.40981 24123 ft 363 kts 299°
2026-05-05 12:36 37.77960 21.38112 24122 ft 363 kts 299°
2026-05-05 12:37 37.79069 21.35244 24122 ft 363 kts 299°
2026-05-05 12:37 37.80179 21.32371 24123 ft 364 kts 299°
2026-05-05 12:37 37.81286 21.29498 24124 ft 364 kts 299°
2026-05-05 12:37 37.82392 21.26620 24125 ft 364 kts 299°
2026-05-05 12:38 37.83496 21.23743 24126 ft 364 kts 299°
2026-05-05 12:38 37.84228 21.21834 24136 ft 364 kts 299°
2026-05-05 12:38 37.85334 21.18951 24134 ft 364 kts 299°
2026-05-05 12:38 37.86440 21.16073 24133 ft 364 kts 299°
2026-05-05 12:39 37.87545 21.13190 24125 ft 364 kts 298°
2026-05-05 12:39 37.88649 21.10304 24127 ft 365 kts 299°
2026-05-05 12:39 37.89751 21.07414 24026 ft 358 kts 299°
2026-05-05 12:39 37.90811 21.04624 23795 ft 347 kts 299°
2026-05-05 12:40 37.91850 21.01888 23540 ft 344 kts 299°
2026-05-05 12:40 37.92886 20.99160 23277 ft 343 kts 298°
2026-05-05 12:40 37.93919 20.96443 23020 ft 341 kts 298°
2026-05-05 12:40 37.94949 20.93737 22743 ft 340 kts 298°
2026-05-05 12:41 37.95974 20.91045 22480 ft 339 kts 298°
2026-05-05 12:41 37.97002 20.88348 22224 ft 338 kts 298°
2026-05-05 12:41 37.98024 20.85666 21965 ft 338 kts 298°
2026-05-05 12:41 37.99039 20.82989 21716 ft 334 kts 298°
2026-05-05 12:42 38.00022 20.80385 21363 ft 322 kts 297°
2026-05-05 12:42 38.00973 20.77864 20996 ft 312 kts 298°
2026-05-05 12:42 38.01897 20.75417 20618 ft 305 kts 298°
2026-05-05 12:42 38.02817 20.72989 20248 ft 306 kts 298°
2026-05-05 12:43 38.03739 20.70553 19867 ft 305 kts 298°
2026-05-05 12:43 38.04653 20.68131 19488 ft 304 kts 298°
2026-05-05 12:43 38.05564 20.65712 19108 ft 303 kts 298°
2026-05-05 12:43 38.06460 20.63333 18732 ft 302 kts 297°
2026-05-05 12:44 38.07361 20.60936 18356 ft 301 kts 297°
2026-05-05 12:44 38.08045 20.58405 17583 ft 310 kts 277°
2026-05-05 12:44 38.07711 20.55660 16723 ft 326 kts 249°
2026-05-05 12:44 38.06309 20.53338 15832 ft 343 kts 220°
2026-05-05 12:45 38.04135 20.52101 15207 ft 345 kts 189°
2026-05-05 12:45 38.01809 20.52340 14939 ft 333 kts 159°
2026-05-05 12:45 37.99893 20.53885 14551 ft 326 kts 129°
2026-05-05 12:45 37.98590 20.56282 14101 ft 336 kts 120°
2026-05-05 12:46 37.97045 20.58556 12940 ft 349 kts 138°
2026-05-05 12:46 37.95049 20.60353 12092 ft 349 kts 148°
2026-05-05 12:46 37.93005 20.61834 11805 ft 330 kts 150°
2026-05-05 12:46 37.91044 20.63231 11404 ft 318 kts 149°
2026-05-05 12:47 37.89181 20.64650 11016 ft 307 kts 147°
2026-05-05 12:47 37.87407 20.66117 10625 ft 303 kts 144°
2026-05-05 12:47 37.85681 20.67637 10310 ft 301 kts 143°
2026-05-05 12:47 37.83971 20.69200 10224 ft 305 kts 142°
2026-05-05 12:48 37.82135 20.70533 10030 ft 306 kts 158°
2026-05-05 12:48 37.80147 20.71450 9628 ft 303 kts 161°
2026-05-05 12:48 37.78158 20.72304 9241 ft 300 kts 161°
2026-05-05 12:48 37.76189 20.73146 8854 ft 298 kts 161°
2026-05-05 12:49 37.74233 20.73986 8461 ft 295 kts 161°
2026-05-05 12:49 37.72299 20.74819 8088 ft 293 kts 161°
2026-05-05 12:49 37.70378 20.75650 7713 ft 290 kts 161°
2026-05-05 12:49 37.68472 20.76479 7342 ft 289 kts 161°
2026-05-05 12:50 37.66583 20.77304 6976 ft 286 kts 161°
2026-05-05 12:50 37.64715 20.78123 6619 ft 284 kts 161°
2026-05-05 12:50 37.62862 20.78937 6231 ft 279 kts 161°
2026-05-05 12:50 37.61065 20.79737 5850 ft 269 kts 158°
2026-05-05 12:51 37.59445 20.80829 5477 ft 260 kts 148°
2026-05-05 12:51 37.57934 20.82033 5102 ft 253 kts 147°
2026-05-05 12:51 37.56479 20.83216 4725 ft 246 kts 147°
2026-05-05 12:51 37.55067 20.84376 4340 ft 239 kts 147°
2026-05-05 12:52 37.53725 20.85569 3981 ft 232 kts 134°
2026-05-05 12:52 37.52853 20.87177 3879 ft 215 kts 109°
2026-05-05 12:52 37.52600 20.88946 3863 ft 195 kts 84°
2026-05-05 12:52 37.52882 20.90513 3813 ft 177 kts 62°
2026-05-05 12:53 37.53498 20.91820 3782 ft 172 kts 55°
2026-05-05 12:53 37.54137 20.93090 3725 ft 172 kts 54°
2026-05-05 12:53 37.54924 20.94184 3689 ft 167 kts 31°
2026-05-05 12:53 37.55972 20.94767 3630 ft 166 kts
2026-05-05 12:54 37.58183 20.94396 3264 ft 161 kts 342°
2026-05-05 12:54 37.59265 20.93998 3049 ft 162 kts 342°
2026-05-05 12:54 37.60328 20.93607 2833 ft 162 kts 343°
2026-05-05 12:55 37.61413 20.93210 2605 ft 162 kts 341°
2026-05-05 12:55 37.62491 20.92817 2380 ft 159 kts 342°
2026-05-05 12:55 37.63552 20.92432 2164 ft 160 kts 343°
2026-05-05 12:55 37.64619 20.92058 1957 ft 158 kts 342°
2026-05-05 12:56 37.65635 20.91710 1747 ft 146 kts 342°
2026-05-05 12:56 37.66591 20.91383 1565 ft 139 kts 342°
2026-05-05 12:56 37.67515 20.91066 1380 ft 138 kts 340°
2026-05-05 12:56 37.68453 20.90741 1205 ft 141 kts 342°
2026-05-05 12:57 37.69403 20.90448 1078 ft 141 kts 343°
2026-05-05 12:57 37.70359 20.90193 903 ft 140 kts 346°
2026-05-05 12:57 37.71303 20.89853 631 ft 143 kts 341°
2026-05-05 12:57 37.72262 20.89476 405 ft 146 kts 346°
2026-05-05 12:58 37.73242 20.89124 208 ft 147 kts 342°
2026-05-05 12:58 37.74226 20.88747 55 ft 147 kts 343°
2026-05-05 12:58 37.75147 20.88405 17 ft 123 kts 344°
2026-05-05 12:58 37.75694 20.88199 18 ft 41 kts 344°
2026-05-05 12:59 37.75849 20.88145 17 ft 12 kts 344°
2026-05-05 12:59 37.75864 20.88167 19 ft 3 kts 137°
2026-05-05 12:59 37.75843 20.88170 18 ft 4 kts 171°
2026-05-05 13:00 37.75738 20.88191 19 ft 12 kts 168°
2026-05-05 13:00 37.75649 20.88220 18 ft 15 kts 163°
2026-05-05 13:01 37.75408 20.88451 16 ft 9 kts 97°
2026-05-05 13:01 37.75402 20.88531 16 ft 6 kts 84°
2026-05-05 13:01 37.75404 20.88542 16 ft 0 kts 76°